Track STARLINK-2269 now! 10-day predictions STARLINK-2269 is classified as:
1 48447U 21040V 22181.28744228 .00000112 00000-0 26457-4 0 9997 2 48447 53.0548 114.8391 0001889 59.7090 300.4085 15.06406646 63396